Owensboro, KY

5:00 AM CST on February 24, 2017 (GMT -0600)
Owensboro-Daviess County

Weather History for KOWB - February, 2014

Change the Weather History Date:

Tuesday, February 4, 2014

  Actual Average Record
Temperature  
Mean Temperature 25 °F -  
Max Temperature 31 °F 43 °F 73 °F (1962)
Min Temperature 19 °F 23 °F 0 °F (1939)
Degree Days  
Heating Degree Days 40    
Moisture  
Dew Point 27 °F    
Average Humidity 96    
Maximum Humidity 100    
Minimum Humidity 75    
Precipitation  
Precipitation 1.07 in - - ()
Sea Level Pressure  
Sea Level Pressure 30.07 in    
Wind  
Wind Speed 6 mph (ENE)    
Max Wind Speed 17 mph    
Max Gust Speed -    
Visibility 4 miles    
Events Fog , Rain , Snow    
Averages and records for this station are not official NWS values.
T = Trace of Precipitation, MM = Missing Value Source: NWS Daily Summary

Daily Weather History Graph

Daily Weather History Graph

Search for Another Location

Airport or City:

Trip Planner

Search our weather history database for the weather conditions in past years. The results will help you decide how hot, cold, wet, or windy it might be!

Date:

Astronomy

Feb. 04, 2014 Rise Set
Actual Time 6:49 AM CST 5:15 PM CST
Civil Twilight 6:22 AM CST 5:43 PM CST
Nautical Twilight 5:51 AM CST 6:14 PM CST
Astronomical Twilight 5:20 AM CST 6:45 PM CST
Moon 9:34 AM CST (2/4) 11:02 PM CST (2/4)
Length of Visible Light 11h 20m
Length of Day
10h 25m
Waxing Crescent, 29% of the Moon is Illuminated
Feb 4
Waxing Crescent
Feb 6
First Quarter
Feb 14
Full
Feb 22
Last Quarter
Mar 1
New

Hourly Weather History & Observations

Time (CST) Temp. Windchill Dew Point Humidity Pressure Visibility Wind Dir Wind Speed Gust Speed Precip Events Conditions
12:56 AM 19.0 °F - 19.0 °F 100% 30.32 in 4.0 mi Calm Calm - N/A   Clear
1:56 AM 19.0 °F - 19.0 °F 100% 30.32 in 4.0 mi Calm Calm - N/A   Clear
2:56 AM 22.1 °F 13.7 °F 22.1 °F 100% 30.31 in 5.0 mi NE 6.9 mph - N/A   Clear
3:56 AM 23.0 °F 18.4 °F 23.0 °F 100% 30.29 in 4.0 mi NE 3.5 mph - N/A   Clear
4:56 AM 23.0 °F - 23.0 °F 100% 30.34 in 6.0 mi Calm Calm - N/A   Clear
5:56 AM 24.1 °F 16.0 °F 24.1 °F 100% 30.30 in 6.0 mi ENE 6.9 mph - N/A   Clear
6:56 AM 25.2 °F 18.3 °F 23.0 °F 91% 30.30 in 6.0 mi ENE 5.8 mph - N/A   Clear
7:56 AM 25.2 °F 14.4 °F 24.1 °F 96% 30.27 in 7.0 mi ENE 11.5 mph - N/A   Clear
8:56 AM 27.1 °F 18.9 °F 25.2 °F 92% 30.29 in 7.0 mi ENE 8.1 mph - N/A   Clear
9:56 AM 29.1 °F 17.9 °F 25.2 °F 85% 30.24 in 8.0 mi East 15.0 mph - N/A   Clear
10:56 AM 30.0 °F 22.4 °F 24.1 °F 79% 30.24 in 8.0 mi East 8.1 mph - N/A   Clear
11:56 AM 30.0 °F 20.5 °F 23.0 °F 75% 30.19 in 8.0 mi ENE 11.5 mph - N/A   Partly Cloudy
12:56 PM 30.0 °F 21.7 °F 24.1 °F 79% 30.18 in 8.0 mi ENE 9.2 mph - 0.00 in   Mostly Cloudy
1:22 PM 30.2 °F 20.8 °F 24.8 °F 80% 30.11 in 1.8 mi NE 11.5 mph - 0.00 in Snow Light Snow
1:32 PM 28.4 °F 17.5 °F 24.8 °F 86% 30.10 in 0.5 mi NE 13.8 mph - 0.00 in Fog , Snow Light Snow
1:41 PM 28.4 °F 17.5 °F 26.6 °F 93% 30.08 in 0.5 mi NE 13.8 mph - 0.00 in Fog , Snow Light Snow
1:56 PM 28.0 °F 16.1 °F 28.0 °F 100% 30.08 in 1.0 mi ENE 16.1 mph - 0.02 in Snow Light Snow
2:02 PM 28.4 °F 18.5 °F 28.4 °F 100% 30.08 in 2.0 mi ENE 11.5 mph - 0.00 in Snow Light Snow
2:38 PM 26.6 °F 16.8 °F 26.6 °F 100% 30.05 in 0.8 mi ENE 10.4 mph - 0.01 in Snow Light Snow
2:56 PM 28.0 °F 15.7 °F 28.0 °F 100% 30.01 in 1.0 mi ENE 17.3 mph - 0.02 in Snow Snow Grains
3:56 PM 29.1 °F 19.4 °F 29.1 °F 100% 30.00 in 1.0 mi ENE 11.5 mph - 0.14 in Rain Light Freezing Rain
4:56 PM 29.1 °F 19.4 °F 29.1 °F 100% 29.96 in 1.0 mi ENE 11.5 mph - 0.22 in Rain Light Freezing Rain
5:56 PM 30.0 °F 21.7 °F 30.0 °F 100% 29.96 in 3.0 mi NNE 9.2 mph - 0.21 in Rain Light Freezing Rain
5:58 PM 30.2 °F 26.7 °F 30.2 °F 100% 29.95 in 2.5 mi ENE 3.5 mph - 0.01 in Rain Light Freezing Rain
6:05 PM 30.2 °F 26.7 °F 30.2 °F 100% 29.94 in 3.0 mi NE 3.5 mph - 0.03 in Rain Light Freezing Rain
6:56 PM 30.0 °F 23.2 °F 30.0 °F 100% 29.96 in 3.0 mi NNE 6.9 mph - 0.15 in Rain Light Freezing Rain
7:56 PM 30.0 °F 26.5 °F 30.0 °F 100% 29.93 in 4.0 mi ENE 3.5 mph - 0.22 in Rain Light Freezing Rain
8:56 PM 31.1 °F 27.7 °F 31.1 °F 100% 29.85 in 4.0 mi East 3.5 mph - 0.07 in Rain Light Freezing Rain
9:56 PM 31.1 °F - 31.1 °F 100% 29.81 in 7.0 mi Calm Calm - 0.01 in   Overcast
10:37 PM 30.2 °F - 30.2 °F 100% 29.86 in 1.8 mi Calm Calm - 0.00 in   Overcast
10:56 PM 31.1 °F - 31.1 °F 100% 29.85 in 2.0 mi Calm Calm - 0.01 in   Overcast
11:09 PM 30.2 °F - 30.2 °F 100% 29.83 in 1.8 mi Calm Calm - 0.00 in   Overcast
11:17 PM 30.2 °F - 30.2 °F 100% 29.82 in 2.0 mi Calm Calm - 0.00 in   Overcast
11:44 PM 30.2 °F - 30.2 °F 100% 29.83 in 2.5 mi Calm Calm - 0.00 in   Overcast
11:56 PM 31.1 °F - 31.1 °F 100% 29.83 in 2.5 mi Calm Calm - 0.00 in   Overcast